カタログに戻る

STARLINK-1309

運用中通信VLEO
NORAD 45414·PAYLOAD·🇺🇸 United States

打ち上げ Mar 18, 2020 から Cape Canaveral Space Force Station

Loading…

次のパス (今後24時間)

TLE

最新Source: CelesTrak SupGP

元期: Sep 15, 2026, 01:55 UTC

1 45414C 20019BG  26258.08034722  .00148900  00000+0  51070-3 0  2584
2 45414  53.0511 265.7929 0006286  35.7480  79.5206 15.88827831    15

AllMySatでSTARLINK-1309をリアルタイム追跡

Download on the App Store